Location: Baia Mare
(47.6567°N, 23.5850°E)
Time: 13:04:57
(UTC+03:00)

ISS - Pass Details

Date: 20 July 2018
Orbit: 402 x 408 km, 51.6° (Epoch: 17 July)

Event Time Altitude Azimuth Distance (km) Brightness Sun altitude
Rises 00:02:20 0° 249° (WSW) 2,316 0.0 -18.7°
Reaches altitude 10° 00:04:24 10° 250° (WSW) 1,460 -1.0 -18.8°
Maximum altitude 00:07:41 79° 337° (NNW) 418 -3.8 -19.0°
Drops below altitude 10° 00:10:58 10° 65° (ENE) 1,468 -1.0 -19.2°
Sets 00:13:04 0° 67° (ENE) 2,332 0.1 -19.4°
